Flag for Qatar Weather past 2 weeks in Al-Jamiliyah, Qatar

Now
98 °F

Sunny.


Feels Like: 98 °F
Forecast: 90 / 106 °F
Wind: 8 mph from Northwest

Location: Al Udeid

Current Time: Jul 22, 2014 at 8:45:01 PM

Latest Report: Jul 22, 2014 at 7:58 PM


Visibility: N/A

Pressure: 29.50 "Hg

Humidity: 29%

Dew point: 60 °F

Location of Al-JamiliyahLocation

Historic Weather in Al-Jamiliyah — Graph

°F

Al-Jamiliyah temperature yesterday

Maximum temperature yesterday: 113 °F (at 2:58 PM)
Minimum temperature yesterday: 85 °F (at 3:58 AM)
Average temperature yesterday: 98 °F

Past Weeks' High & Low Weather Summary

 TemperatureHumidityPressure
High114 °F (Jul 14, 12:58 PM)92% (Jul 19, 5:58 AM)29.60 "Hg (Jul 19, 5:58 AM)
Low82 °F (Jul 9, 4:58 AM)6% (Jul 10, 5:58 PM)29.34 "Hg (Jul 17, 11:58 PM)
Average99 °F31%29.47 "Hg
* Reported Jul 7 8:58 PM — Jul 22 6:58 PM, Al-Jamiliyah, Weather by CustomWeather, © 2014

Note: Actual official high and low records may vary slightly from our data, if they occured in-between our weather recording intervals... More about our weather records

Advertising

Al-Jamiliyah weather history for previous 24 hours

 ConditionsComfort  
Time TempWeatherWind HumidityBarometerVisibility
6:58 PM
Jul 22
101 °FSunny.16 mph25%29.48 "HgN/A
5:58 PM104 °FSunny.18 mph22%29.46 "HgN/A
4:58 PM108 °FSunny.20 mph18%29.46 "HgN/A
3:58 PM110 °FSunny.22 mph12%29.44 "HgN/A
2:58 PM111 °FSunny.20 mph13%29.45 "HgN/A
1:58 PM112 °FSunny.18 mph13%29.46 "HgN/A
12:58 PM112 °FSunny.15 mph13%29.47 "HgN/A
11:58 AM111 °FPartly sunny.18 mph15%29.48 "HgN/A
10:58 AM110 °FSunny.15 mph17%29.50 "HgN/A
9:58 AM108 °FSunny.14 mph20%29.51 "HgN/A
8:58 AM105 °FSunny.17 mph21%29.51 "HgN/A
7:58 AM100 °FSunny.14 mph30%29.51 "HgN/A
6:58 AM92 °FSunny.10 mph45%29.50 "HgN/A
5:58 AM86 °FSunny.6 mph53%29.48 "HgN/A
4:58 AM84 °FClear.8 mph60%29.46 "HgN/A
3:58 AM85 °FClear.5 mph61%29.46 "HgN/A
2:58 AM86 °FClear.5 mph61%29.46 "HgN/A
1:58 AM87 °FClear.5 mph58%29.45 "HgN/A
12:58 AM89 °FClear.6 mph46%29.46 "HgN/A
11:58 PM
Jul 21
90 °FClear.8 mph38%29.47 "HgN/A
10:58 PM91 °FClear.7 mph37%29.49 "HgN/A
9:58 PM92 °FClear.8 mph32%29.50 "HgN/A
8:58 PM95 °FClear.7 mph28%29.50 "HgN/A
Weather by CustomWeather, © 2014

See weather overviewHow to use our weather pages